sat.trackr.live / text

‹ back to catalog

STARLINK-11637 [DTC]

NORAD 63190 · 2025-048H

PAYLOAD ACTIVE UNKNOWN

§ Identity

Operator
Country
US
Launch date
2025-03-13
Launch site
AFETR
Launch vehicle
Mass (kg)
RCS (m²)

Purposes: comms

External: N2YO · Heavens-Above · Gunter

§ Orbital elements

Epoch: 2026-05-25T05:23:11.509728Z

Period
91.67 min
Inclination
42.9977°
Eccentricity
0.0001520
Mean motion
15.70911366 rev/d
Perigee alt
355.3 km
Apogee alt
357.3 km
Semi-major
6,734.4 km
B*
1.2261e-3
RAAN
218.9680°
Arg perigee
303.8826°
Mean anomaly
56.1897°
Rev number
7,055

§ Raw data

STARLINK-11637 [DTC]1 63190U 25048H   26145.22443877  .00160431  00000+0  12261-2 0  99912 63190  42.9977 218.9680 0001520 303.8826  56.1897 15.70911366 70553

JSON: /api/v1/satellites/63190 · /tle

For live sub-satellite position, see the globe view (requires WebGL).

§ Visibility from observer

Set your observer location to see the next 7 days of passes ≥ 10°. The values pass through the URL so the page stays shareable.

No JS? Fill the form by hand. The geolocation button needs JavaScript.